User: anonymous   Login
Location: Champaign/Urbana Astronomical Society Observatory
(40.0333°N, 88.2833°W)
Time: 00:41:44
(UTC-05:00)
Language:

DX 1 - Orbit

View from above orbital plane
View from above orbital plane
View from above satellite
View from above satellite

Ground track
Ground track

The orbit data is extracted from the following two-line orbital elements,

1 40071U 14037C   19292.69765850  .00000077  00000-0  17438-4 0  9997
2 40071  98.4416  92.9771 0008106 184.0192 176.0955 14.81299302285468
Epoch (UTC): 19 October 2019 16:44:37
Eccentricity: 0.0008106
inclination: 98.4416°
perigee height: 619 km
apogee height: 631 km
right ascension of ascending node: 92.9771°
argument of perigee: 184.0192°
revolutions per day: 14.81299302
mean anomaly at epoch: 176.0955°
orbit number at epoch: 28546

The dashed part of the orbit path shows where the satellite is in the earth's shadow,  

DLR